Cloverdale, Indiana, United States (46120)
Lat: 39.51N, Lon: 86.79W
Wx Zone: INZ045
Local Info
Past Weather Observations for Tuesday, December 16, 2014

NOTE: This archive is for the closest National Weather Service station to Cloverdale. Information may differ from the station used for current weather conditions.

Click here for Long-term Archive

Time Weather Temperature Dewpoint Humidity Pressure Winds Precip Visibility
23:53
Overcast
Fog And Mist
30°F / -1°C 28°F / -2°C 93% 30.18 in
(1022 mb)
W 12.7 mph
(W 20 kph)
- 6SM
22:53
Overcast
32°F / 0°C 28°F / -2°C 87% 30.18 in
(1022 mb)
NW 9.2 mph
(NW 15 kph)
- 9SM
22:26
Overcast
32°F / 0°C 28°F / -2°C 87% 30.15 in
(1021 mb)
NW 10.4 mph
(NW 17 kph)
- 10SM
21:53
Overcast
32°F / 0°C 30°F / -1°C 93% 30.15 in
(1021 mb)
NW 6.9 mph
(NW 11 kph)
0.00 in
(0.00 mm)
10SM
21:07
Overcast
Light Snow
34°F / 1°C 30°F / -1°C 87% 30.15 in
(1021 mb)
WNW 6.9 mph
(WNW 11 kph)
0.00 in
(0.00 mm)
3SM
20:53
Overcast
Light Snow
34°F / 1°C 30°F / -1°C 87% 30.15 in
(1021 mb)
WNW 6.9 mph
(WNW 11 kph)
0.01 in
(0.25 mm)
2SM
20:31
Overcast
Light Snow
34°F / 1°C 30°F / -1°C 87% 30.12 in
(1020 mb)
NW 10.4 mph
(NW 17 kph)
0.00 in
(0.00 mm)
2 1/2SM
19:53
Overcast
34°F / 1°C 32°F / 0°C 93% 30.12 in
(1020 mb)
WNW 10.4 mph
(WNW 17 kph)
0.01 in
(0.25 mm)
7SM
19:22
Overcast
Unknown Precip
34°F / 1°C 32°F / 0°C 93% 30.12 in
(1020 mb)
WNW 12.7 mph
(WNW 20 kph)
0.01 in
(0.25 mm)
5SM
19:14
Overcast
Light Snow
34°F / 1°C 32°F / 0°C 93% 30.12 in
(1020 mb)
W 10.4 mph
(W 17 kph)
0.01 in
(0.25 mm)
2 1/2SM
18:53
Overcast
Light Rain
34°F / 1°C 34°F / 1°C 100% 30.12 in
(1020 mb)
W 13.8 mph
(W 22 kph)
0.00 in
(0.00 mm)
4SM
18:40
Overcast
Light Rain
36°F / 2°C 34°F / 1°C 93% 30.09 in
(1019 mb)
W 13.8 mph
(W 22 kph)
0.00 in
(0.00 mm)
4SM
18:31
Overcast
Unknown Precip
36°F / 2°C 34°F / 1°C 93% 30.09 in
(1019 mb)
W 11.5 mph
(W 19 kph)
0.00 in
(0.00 mm)
2 1/2SM
17:53
Overcast
Fog And Mist
36°F / 2°C 34°F / 1°C 93% 30.06 in
(1018 mb)
W 12.7 mph
(W 20 kph)
0.00 in
(0.00 mm)
4SM
17:19
Overcast
Fog And Mist
36°F / 2°C 34°F / 1°C 93% 30.06 in
(1018 mb)
W 11.5 mph
(W 19 kph)
0.00 in
(0.00 mm)
3SM
16:53
Overcast
Light Rain
36°F / 2°C 36°F / 2°C 100% 30.04 in
(1017 mb)
W 9.2 mph
(W 15 kph)
0.00 in
(0.00 mm)
2SM
16:49
Overcast
Unknown Precip
36°F / 2°C 36°F / 2°C 100% 30.04 in
(1017 mb)
WNW 11.5 mph
(WNW 19 kph)
0.00 in
(0.00 mm)
2SM
15:53
Overcast
Light Rain
37°F / 3°C 36°F / 2°C 93% 30.01 in
(1016 mb)
W 12.7 mph
(W 20 kph)
0.00 in
(0.00 mm)
8SM
14:53
Overcast
37°F / 3°C 36°F / 2°C 93% 29.95 in
(1014 mb)
W 16.1 mph
(W 26 kph)
0.00 in
(0.00 mm)
9SM
14:27
Overcast
Light Rain
39°F / 4°C 37°F / 3°C 93% 29.95 in
(1014 mb)
W 12.7 mph
(W 20 kph)
0.00 in
(0.00 mm)
10SM
13:53
Overcast
39°F / 4°C 37°F / 3°C 93% 29.95 in
(1014 mb)
W 11.5 mph
(W 19 kph)
0.00 in
(0.00 mm)
10SM
13:27
Overcast
Light Rain
39°F / 4°C 37°F / 3°C 93% 29.92 in
(1013 mb)
W 13.8 mph
(W 22 kph)
0.00 in
(0.00 mm)
4SM
13:00
Overcast
Light Rain
41°F / 5°C 39°F / 4°C 93% 29.92 in
(1013 mb)
W 16.1 mph
(W 26 kph)
0.00 in
(0.00 mm)
2SM
12:53
Overcast
Light Rain
41°F / 5°C 39°F / 4°C 93% 29.92 in
(1013 mb)
W 18.4 mph
(W 30 kph)
0.02 in
(0.51 mm)
2 1/2SM
12:24
Overcast
Light Rain
41°F / 5°C 39°F / 4°C 93% 29.92 in
(1013 mb)
SSW 15 mph
(SSW 24 kph)
0.01 in
(0.25 mm)
5SM
12:14
Overcast
Light Rain
41°F / 5°C 39°F / 4°C 93% 29.92 in
(1013 mb)
SSW 12.7 mph
(SSW 20 kph)
0.01 in
(0.25 mm)
2 1/2SM
11:53
Overcast
Light Rain
41°F / 5°C 39°F / 4°C 93% 29.92 in
(1013 mb)
SSW 12.7 mph
(SSW 20 kph)
0.01 in
(0.25 mm)
1 3/4SM
11:44
Overcast
Light Rain
41°F / 5°C 39°F / 4°C 93% 29.92 in
(1013 mb)
SSW 12.7 mph
(SSW 20 kph)
0.01 in
(0.25 mm)
2 1/2SM
11:28
Overcast
Light Rain
41°F / 5°C 39°F / 4°C 93% 29.89 in
(1012 mb)
SSW 12.7 mph
(SSW 20 kph)
0.01 in
(0.25 mm)
3SM
10:53
Overcast
Light Rain
41°F / 5°C 39°F / 4°C 93% 29.89 in
(1012 mb)
SSW 13.8 mph
(SSW 22 kph)
0.00 in
(0.00 mm)
2 1/2SM
10:03
Overcast
Light Rain
41°F / 5°C 39°F / 4°C 93% 29.86 in
(1011 mb)
SSW 16.1 mph
(SSW 26 kph)
0.00 in
(0.00 mm)
2SM
09:53
Overcast
Light Rain
41°F / 5°C 39°F / 4°C 93% 29.86 in
(1011 mb)
SSW 9.2 mph
(SSW 15 kph)
0.00 in
(0.00 mm)
1 3/4SM
09:50
Overcast
Light Rain
41°F / 5°C 39°F / 4°C 93% 29.86 in
(1011 mb)
SSW 10.4 mph
(SSW 17 kph)
0.00 in
(0.00 mm)
1 3/4SM
09:31
Overcast
41°F / 5°C 39°F / 4°C 93% 29.86 in
(1011 mb)
SSW 12.7 mph
(SSW 20 kph)
0.00 in
(0.00 mm)
10SM
08:53
Overcast
Light Rain
41°F / 5°C 39°F / 4°C 93% 29.83 in
(1010 mb)
SSW 13.8 mph
(SSW 22 kph)
0.00 in
(0.00 mm)
4SM
08:19
Overcast
Light Rain
43°F / 6°C 39°F / 4°C 87% 29.8 in
(1009 mb)
SSW 10.4 mph
(SSW 17 kph)
0.00 in
(0.00 mm)
5SM
08:03
Overcast
43°F / 6°C 39°F / 4°C 87% 29.8 in
(1009 mb)
W 13.8 mph
(W 22 kph)
0.00 in
(0.00 mm)
10SM
07:53
Overcast
Light Rain
43°F / 6°C 39°F / 4°C 87% 29.8 in
(1009 mb)
SSW 16.1 mph
(SSW 26 kph)
0.02 in
(0.51 mm)
10SM
06:53
Overcast
Light Rain
43°F / 6°C 41°F / 5°C 93% 29.77 in
(1008 mb)
W 12.7 mph
(W 20 kph)
0.03 in
(0.76 mm)
4SM
06:37
Overcast
Light Rain
43°F / 6°C 41°F / 5°C 93% 29.77 in
(1008 mb)
SSW 16.1 mph
(SSW 26 kph)
0.03 in
(0.76 mm)
4SM
06:21
Overcast
Light Rain
45°F / 7°C 43°F / 6°C 93% 29.77 in
(1008 mb)
SSW 12.7 mph
(SSW 20 kph)
0.02 in
(0.51 mm)
2 1/2SM
06:03
Overcast
Light Rain
45°F / 7°C 43°F / 6°C 93% 29.77 in
(1008 mb)
SSW 12.7 mph
(SSW 20 kph)
0.01 in
(0.25 mm)
4SM
05:53
Overcast
Light Rain
46°F / 8°C 45°F / 7°C 93% 29.74 in
(1007 mb)
SSW 15 mph
(SSW 24 kph)
0.00 in
(0.00 mm)
6SM
05:45
Overcast
Light Rain
46°F / 8°C 45°F / 7°C 93% 29.74 in
(1007 mb)
SSW 9.2 mph
(SSW 15 kph)
0.00 in
(0.00 mm)
7SM
05:38
Overcast
46°F / 8°C 45°F / 7°C 93% 29.74 in
(1007 mb)
SSW 10.4 mph
(SSW 17 kph)
- 10SM
04:53
Overcast
48°F / 9°C 45°F / 7°C 87% 29.71 in
(1006 mb)
W 9.2 mph
(W 15 kph)
- 10SM
03:53
Overcast
48°F / 9°C 46°F / 8°C 94% 29.71 in
(1006 mb)
SSW 10.4 mph
(SSW 17 kph)
0.00 in
(0.00 mm)
10SM
03:16
Overcast
Light Rain
50°F / 10°C 46°F / 8°C 88% 29.71 in
(1006 mb)
SSW 10.4 mph
(SSW 17 kph)
0.00 in
(0.00 mm)
10SM
03:06
Overcast
50°F / 10°C 48°F / 9°C 94% 29.71 in
(1006 mb)
SSW 12.7 mph
(SSW 20 kph)
0.00 in
(0.00 mm)
10SM
02:59
Overcast
Light Rain
50°F / 10°C 48°F / 9°C 94% 29.71 in
(1006 mb)
SSW 8.1 mph
(SSW 13 kph)
0.00 in
(0.00 mm)
10SM
02:53
Overcast
Light Rain
50°F / 10°C 48°F / 9°C 94% 29.71 in
(1006 mb)
SSW 9.2 mph
(SSW 15 kph)
0.00 in
(0.00 mm)
10SM
02:48
Overcast
50°F / 10°C 48°F / 9°C 94% 29.71 in
(1006 mb)
SW 9.2 mph
(SW 15 kph)
0.00 in
(0.00 mm)
10SM
02:28
Overcast
48°F / 9°C 48°F / 9°C 100% 29.71 in
(1006 mb)
SSW 9.2 mph
(SSW 15 kph)
0.00 in
(0.00 mm)
8SM
01:53
Overcast
Light Rain
48°F / 9°C 46°F / 8°C 94% 29.68 in
(1005 mb)
SW 5.8 mph
(SW 9 kph)
0.08 in
(2.03 mm)
7SM
01:25
Overcast
Rain
46°F / 8°C 46°F / 8°C 100% 29.71 in
(1006 mb)
S 5.8 mph
(S 9 kph)
0.07 in
(1.78 mm)
3SM
01:21
Overcast
Rain
46°F / 8°C 46°F / 8°C 100% 29.68 in
(1005 mb)
S 4.6 mph
(S 7 kph)
0.07 in
(1.78 mm)
2 1/2SM
01:14
Overcast
Heavy Rain
46°F / 8°C 46°F / 8°C 100% 29.71 in
(1006 mb)
S 5.8 mph
(S 9 kph)
0.05 in
(1.27 mm)
2 1/2SM
00:53
Overcast
Rain
46°F / 8°C 45°F / 7°C 93% 29.71 in
(1006 mb)
S 6.9 mph
(S 11 kph)
0.05 in
(1.27 mm)
4SM
Time Weather Temperature Dewpoint Humidity Pressure Winds Precip Visibility


Weather for websites

WeatherForYou.com, LLC is not responsible for any damages or problems caused by this service. Current weather conditions are obtained from the closest station including government and personal stations which may have varying degrees of accuracy. Weather forecasts are derived from the NOAA NDFD. Like all things, this site belongs to Jesus Christ... He just trusts me to maintain it. If you have any questions or comments email webmaster@weatherforyou.com

Copyright © 2014, WeatherForYou.com LLC. All rights reserved.